EHI
0 0 0 0 0 0 0 0 0 0 0 0 0 0 0 0 0 0 0 0 0 0 0 0 0 0 0 0 0 0 0 0 0 0 0 0 0 0 0 0 0 0 0
0 0 0 0 0 0 0 0 0 0 0 0 0 0 0 0 0 0 0 0 0 0 0 0 0 0 0 0 0 0 0 0 0 0 0 0 0 0 0 0 0 0 0
0 0 0 0 0 0 0 0 0 0 0 0 0 0 0 0 0 0 0 0 0 0 0 0 0 0 0 0 0 0 0 0 0 0 0 0 0 0 0 0 0 0 0
0 0 0 0 0 0 0 0 0 0 0 0 0 0 0 0 0 0 0 0 0 0 0 0 0 0 0 0 0 0 0 0 0 0 0 0 0 0 0 0 0 0 0
0 0 0 0 0 0 0 0 0 0 0 0 0 0 0 0 0 0 0 0 0 0 0 0 0 0 0 0 0 0 0 0 0 0 0 0 0 0 0 0 0 0 0
0 0 0 0 0 0 0 0 0 0 0 0 0 0 0 0 0 0 0 0 0 0 0 0 0 0 0 0 0 0 0 0 0 0 0 0 0 0 0 0 0 0 0
0 0 0 0 0 0 0 0 0 0 0 0 0 0 0 0 0 0 0 0 0 0 0 0 0 0 0 0 0 0 0 0 0 0 0 0 0 0 0 0 0 0 0
0 0 0 0 0 0 0 0 0 0 0 0 0 0 0 0 0 0 0 0 0 0 0 0 0 0 0 0 0 0 0 0 0 0 0 0 0 0 0 0 0 0 0
0 0 0 0 0 0 0 0 0 0 0 0 0 0 0 0 0 0 0 0 0 0 0 0 0 0 0 0 0 0 0 0 0 0 0 0 0 0 0 0 0 0 0
0 0 0 0 0 0 0 0 0 0 0 0 0 0 0 0 0 0 0 0 0 0 0 0 0 0 0 0 0 0 0 0 0 0 0 0 0 0 0 0 0 0 0
0 0 0 0 0 0 0 0 0 0 0 0 0 0 0 0 0 0 0 0 0 0 0 0 0 0 0 0 0 0 0 0 0 0 0 0 0 0 0 0 0 0 0
0 0 0 0 0 0 0 0 0 0 0 0 0 0 0 0 0 0 0 0 0 0 0 0 0 0 0 0 0 0 0 0 0 0 0 0 0 0 0 0 0 0 0
0 0 0 0 0 0 0 0 0 0 0 0 0 0 0 0 0 0 0 0 0 0 0 0 0 0 0 0 0 0 0 0 0 0 0 0 0 0 0 0 0 0 0
0 0 0 0 0 0 0 0 0 0 0 0 0 0 0 0 0 0 0 0 0 0 0 0 0 0 0 0 0 0 0 0 0 0 0 0 0 0 0 0 0 0 0
0 0 0 0 0 0 0 0 0 0 0 0 0 0 0 0 0 0 0 0 0 0 0 0 0 0 0 0 0 0 0 0 0 0 0 0 0 0 0 0 0 0 0
0 0 0 0 0 0 0 0 0 0 0 0 0 0 0 0 0 0 0 0 0 0 0 0 0 0 0 0 0 0 0 0 0 0 0 0 0 0 0 0 0 0 0
0 0 0 0 0 0 0 0 0 0 0 0 0 0 0 0 0 0 0 0 0 0 0 0 0 0 0 0 0 0 0 0 0 0 0 0 0 0 0 0 0 0 0
0 0 0 0 0 0 0 0 0 0 0 0 0 0 0 0 0 0 0 0 0 0 0 0 0 0 0 0 0 0 0 0 0 0 0 0 0 0 0 0 0 0 0
0 0 0 0 0 0 0 0 0 0 0 0 0 0 0 0 0 0 0 0 0 0 0 0 0 0 0 0 0 0 0 0 0 0 0 0 0 0 0 0 0 0 0
0 0 0 0 0 0 0 0 0 0 0 0 0 0 0 0 0 0 0 0 0 0 0 0 0 0 0 0 0 0 0 0 0 0 0 0 0 0 0 0 0 0 0
0 0 0 0 0 0 0 0 0 0 0 0 0 0 0 0 0 0 0 0 0 0 0 0 0 0 0 0 0 0 0 0 0 0 0 0 0 0 0 0 0 0 0
0 0 0 0 0 0 0 0 0 0 0 0 0 0 0 0 0 0 0 0 0 0 0 0 0 0 0 0 0 0 0 0 0 0 0 0 0 0 0 0 0 0 0
0 0 0 0 0 0 0 0 0 0 0 0 0 0 0 0 0 0 0 0 0 0 0 0 0 0 0 0 0 0 0 0 0 0 0 0 0 0 0 0 0 0 0
0 0 0 0 0 0 0 0 0 0 0 0 0 0 0 0 0 0 0 0 0 0 0 0 0 0 0 0 0 0 0 0 0 0 0 0 0 0 0 0 0 0 0
0 0 0 0 0 0 0 0 0 0 0 0 0 0 0 0 0 0 0 0 0 0 0 0 0 0 0 0 0 0 0 0 0 0 0 0 0 0 0 0 0 0 0
0 0 0 0 0 0 0 0 0 0 0 0 0 0 0 0 0 0 0 0 0 0 0 0 0 0 0 0 0 0 0 0 0 0 0 0 0 0 0 0 0 0 0
Wind_Speed
2 2 3 2 2 2 2 2 2 2 2 2 2 3 3 4 4 3 3 3 4 4 3 2 2 1 1 0 1 1 1 1 1 1 0 1 1 1 2 2 2 2 3
2 3 2 2 2 3 3 2 2 2 2 2 2 2 3 3 3 4 4 4 4 4 4 3 2 1 2 1 1 1 1 1 2 2 1 1 1 1 1 2 2 2 2
2 3 2 2 2 2 2 2 2 2 2 3 2 2 3 3 3 3 3 3 3 4 3 3 2 1 2 1 1 1 1 1 2 2 1 1 0 0 1 2 2 2 2
3 3 2 1 1 1 2 2 2 2 2 3 3 2 2 3 3 3 3 3 3 4 3 3 3 2 0 0 1 1 2 2 2 2 2 1 0 0 0 1 1 2 2
3 2 1 0 1 1 2 2 2 2 3 3 3 3 3 3 3 3 3 3 3 4 4 4 3 3 1 0 1 1 2 2 2 2 2 1 1 0 0 0 0 1 1
3 2 1 1 1 1 1 2 2 3 3 3 3 3 4 3 5 5 3 2 3 3 4 4 4 4 3 2 2 1 2 3 3 2 2 2 1 1 1 1 1 0 1
2 2 1 1 0 0 1 1 2 2 2 3 3 3 3 4 6 5 4 2 2 3 3 3 3 4 4 2 3 3 2 1 4 3 3 3 3 3 2 1 1 1 2
2 2 1 1 0 0 1 1 1 1 2 2 3 3 3 4 5 4 4 2 2 2 2 3 3 3 3 2 2 2 2 1 1 2 3 3 3 3 3 2 2 1 2
2 2 1 1 1 0 0 1 1 1 2 2 2 3 3 5 5 4 3 2 2 3 3 3 2 2 3 2 2 2 2 2 1 1 3 3 4 4 4 2 2 1 1
3 2 2 1 2 2 1 1 1 1 2 2 3 3 3 4 5 5 3 1 1 2 3 3 4 3 3 2 1 0 1 2 1 2 1 0 1 2 5 4 3 2 1
2 2 1 1 1 2 1 0 1 1 2 2 3 4 3 3 4 5 3 0 1 2 2 3 3 4 3 2 1 1 2 2 1 1 1 1 1 1 2 3 4 4 3
2 2 1 1 1 1 1 0 1 1 1 3 3 4 3 3 3 4 4 2 1 1 2 2 3 4 4 3 2 2 2 1 1 1 1 1 2 2 2 2 4 5 5
3 2 1 0 0 0 1 1 1 1 1 2 2 3 4 3 3 4 4 4 3 1 2 4 4 5 4 3 3 3 2 1 1 1 2 2 2 2 2 2 2 3 4
3 2 1 1 0 1 1 1 1 2 2 2 3 3 4 4 3 3 2 2 3 2 2 3 4 4 2 3 3 2 1 2 2 2 2 2 2 2 2 2 2 1 2
2 1 1 1 1 1 2 2 3 4 4 4 4 3 3 4 4 5 3 2 2 2 2 2 2 2 3 3 2 2 2 1 2 2 2 3 3 3 2 2 2 2 2
2 1 1 1 1 1 2 3 4 5 7 9 9 7 5 8 8 8 7 6 6 4 1 2 3 3 3 4 4 4 3 3 3 3 3 3 3 3 3 2 2 3 4
3 3 2 1 2 2 2 2 4 5 4 6 8 8 9 9 9 9 7 6 5 2 2 3 4 4 4 4 4 4 4 4 3 3 4 4 4 4 3 4 3 3 4
3 3 3 2 2 2 3 3 3 4 5 5 5 7 9 10 10 9 6 3 3 2 4 5 5 5 5 5 5 5 5 4 4 4 4 4 4 4 4 5 5 5 5
3 3 3 3 3 3 3 4 4 5 5 5 5 6 6 6 7 7 4 3 5 5 5 6 6 6 6 6 6 6 5 5 5 4 5 5 5 5 5 6 6 7 6
3 5 4 3 3 3 4 4 4 4 5 5 6 6 3 2 3 4 4 5 6 7 7 7 7 7 6 6 6 5 5 6 6 6 6 6 5 5 6 7 7 6 6
4 4 5 4 4 4 4 4 5 5 5 6 6 6 6 5 6 6 6 6 6 7 7 7 7 7 6 6 6 6 7 6 6 6 6 6 6 6 6 6 7 7 7
4 4 4 4 4 4 5 5 5 5 6 7 7 6 7 5 5 6 6 7 7 6 6 6 6 6 6 6 6 6 6 7 7 6 7 7 6 7 7 7 7 7 7
4 5 4 4 4 5 5 5 5 6 6 7 7 6 5 5 6 6 7 7 6 6 5 5 6 6 6 6 6 6 7 8 7 7 7 7 7 7 7 8 9 9 9
5 5 5 5 5 5 5 6 6 6 6 6 6 6 6 6 6 7 7 6 6 6 5 5 6 8 10 7 6 6 7 8 8 7 9 8 8 8 7 8 9 10 10
5 5 6 6 5 5 6 6 6 6 6 6 6 6 6 6 6 6 6 5 6 6 7 7 5 6 9 11 9 7 7 8 8 7 7 7 9 9 9 10 9 10 10
5 6 6 5 5 5 5 6 6 6 6 6 6 6 6 6 6 6 6 5 5 6 6 6 7 9 9 8 9 9 8 8 8 7 6 6 8 8 8 8 10 10 10
Wind_Direction
98 89 74 52 39 37 36 17 7 5 9 17 14 23 18 14 11 16 6 2 7 356 356 9 9 14 65 71 126 130 127 136 149 126 87 54 27 33 20 18 25 31 30
114 95 74 54 46 40 27 9 13 14 6 8 12 23 17 14 14 15 12 10 4 355 352 1 4 32 56 61 103 123 134 143 151 150 110 76 47 18 12 16 15 26 34
114 100 77 57 52 38 16 3 11 13 5 8 15 16 7 5 9 9 10 8 1 351 350 0 357 25 48 55 87 102 119 122 129 141 128 79 51 7 21 24 18 9 12
123 115 103 72 54 38 22 17 13 11 4 0 1 357 353 1 5 360 2 360 356 357 1 5 6 18 32 93 103 113 120 117 119 124 125 113 103 27 53 30 6 4 352
133 133 144 102 59 48 32 15 11 15 13 6 5 357 350 357 352 351 354 356 360 6 7 3 4 19 32 85 134 149 137 132 128 128 129 121 119 130 183 292 318 333 322
150 163 165 119 66 37 11 8 17 14 11 12 3 354 351 350 347 351 355 356 8 13 2 354 357 12 13 41 62 114 170 172 166 163 163 172 186 192 183 178 173 334 307
157 160 165 151 127 329 4 25 14 1 4 359 349 350 345 337 344 349 351 4 17 12 1 354 358 4 14 36 42 46 43 192 194 180 179 190 189 192 185 193 210 236 249
158 172 178 167 170 18 36 20 353 345 348 343 335 337 339 336 345 349 356 19 22 7 359 353 348 345 4 29 45 39 22 4 214 197 197 204 208 204 200 201 212 235 261
173 189 198 186 182 164 358 336 333 340 337 331 324 334 336 329 341 351 6 21 13 354 349 351 346 344 351 20 49 34 8 351 20 153 191 209 217 214 194 179 190 188 277
197 204 198 182 182 199 231 288 316 321 314 321 329 332 325 318 328 341 360 28 356 335 338 343 350 351 348 358 15 42 340 320 347 12 32 59 213 207 201 205 204 197 230
191 180 170 171 185 197 209 258 303 332 337 335 328 324 323 314 317 329 344 3 287 316 328 331 331 344 346 337 304 249 245 253 286 290 302 302 281 238 222 211 205 202 212
152 156 163 174 199 165 167 300 329 350 337 329 327 323 321 321 319 316 327 320 258 266 291 300 306 324 331 327 307 272 255 243 227 250 259 275 273 269 259 238 220 220 229
140 152 161 125 33 165 189 249 307 307 295 300 305 306 310 316 314 312 317 320 305 256 277 290 302 313 318 319 301 289 280 227 211 223 244 257 256 259 268 271 241 225 239
156 170 169 156 316 320 267 232 239 255 265 275 281 286 295 303 303 304 310 318 321 310 306 309 312 310 305 291 300 305 274 230 219 238 254 262 265 263 258 252 255 258 274
159 173 185 200 232 282 286 251 240 240 228 235 256 256 266 284 283 274 268 281 286 295 308 317 324 325 328 321 312 298 279 248 235 242 252 268 273 271 266 241 233 234 241
167 194 216 237 258 270 292 306 270 248 259 246 241 241 250 251 272 286 278 274 281 289 275 287 293 294 293 294 299 302 291 273 259 250 251 252 259 262 267 254 229 236 252
188 206 217 230 247 266 278 288 305 310 291 267 257 254 248 259 270 277 281 283 282 252 236 266 273 279 280 280 274 271 273 272 260 250 248 249 250 254 256 261 255 248 255
201 214 218 230 240 253 260 264 266 282 301 304 293 275 267 262 264 269 272 277 276 237 239 256 265 269 269 270 269 265 266 269 259 253 252 251 247 247 253 255 252 250 258
205 217 222 232 241 251 260 267 268 268 272 282 294 295 283 272 268 263 239 223 251 260 255 254 256 260 261 260 261 260 258 260 261 257 254 251 247 242 249 254 254 253 252
221 232 232 236 250 259 262 265 269 270 274 278 282 283 289 281 276 268 232 231 246 257 260 260 260 257 257 258 260 259 259 258 258 256 256 255 251 247 251 256 256 257 255
224 237 239 243 250 254 261 267 268 268 272 276 277 272 256 257 266 268 264 252 248 254 259 261 263 263 260 259 258 256 254 257 256 256 258 257 254 252 252 253 255 257 260
220 230 234 241 250 256 261 265 269 270 273 276 283 285 270 254 259 264 264 261 255 250 251 255 262 262 257 254 251 250 253 255 256 256 257 258 257 257 258 256 256 257 258
223 233 243 249 254 263 269 271 271 272 274 276 279 282 280 269 266 266 267 268 265 261 254 247 254 264 263 255 248 245 250 254 256 254 254 258 260 260 257 258 261 262 261
226 234 243 252 258 263 269 275 276 276 277 278 279 278 277 274 273 273 272 272 272 270 264 255 253 262 270 271 263 253 252 258 263 259 255 257 262 264 262 262 262 263 264
230 237 242 248 256 263 269 273 276 277 278 277 277 278 279 278 277 277 274 271 272 273 274 268 262 263 268 269 268 266 264 261 259 262 259 255 259 263 265 266 266 267 267
233 239 245 248 253 259 264 273 279 281 281 281 279 276 277 278 278 280 279 275 273 272 273 273 271 269 269 271 274 274 270 267 264 258 254 256 258 261 265 266 270 270 272